Content
SEND FEEDBACK

Daily
Averages
Monthly
Summary
United States of America

HARTWELL, GEORGIA


Home > North America > United States > Georgia
Elevation: 761 feet     Latitude: 34 21N     Longitude: 082 55W

WEATHER
 
SELECT A DAY
Number of Records: 206,349;   Date Range: 1/1/95 - 11/26/14
 
SHARE

PRINT THIS DATA

[ ← Previous Day ]
WEATHER ALMANAC - FEBRUARY 13, 2013
[ Next Day → ]
[ °C ]   °F
Weather ElementAverageHighLow
Temperature45.7 °F52 °F (3:56 pm)39 °F (11:56 pm)
Dewpoint43.3 °F46.9 °F (2:56 pm)35.1 °F (10:56 pm)
Humidity91.9 %100 % (7:51 am)69 % (4:56 pm)
Barometer29.79 in29.90 in (11:56 pm)29.72 in (2:51 pm)
Wind Speed7 mph17.3 mph (4:56 pm)
Wind Gust29.9 mph (5:56 pm)
Weather ElementAverage
Visibility6.4 mi
Wind DirectionSSE (147.4 °)

Weather ElementTotal
Precipitation0.10 in
Heating Degree Days19.5 (Base 65)
Averaged from 42 records on February 13, 2013
WEATHER CONDITIONS BREAKOUT
WIND DIRECTION BREAKOUT
WEATHER BY HOUR - FEBRUARY 13, 2013
[ °C ]   °F
Local TimeTemperatureDewpointHumidityBarometerVisibilityWind DirectionWind SpeedGust SpeedPrecipitationEventsConditions
1:39 AM44.6 °F42.8 °F93 %29.86 in10.0 miENE (60°)5.8 mphOvercast
1:56 AM45.0 °F42.1 °F90 %29.85 in10.0 miNE (50°)4.6 mphOvercast
2:56 AM45.0 °F43.0 °F93 %29.84 in6.0 miENE (60°)4.6 mphOvercast
3:21 AM44.6 °F42.8 °F93 %29.84 in3.0 miENE (70°)5.8 mph0.00 inRainLight Rain
3:56 AM44.1 °F43.0 °F96 %29.83 in5.0 miENE (60°)4.6 mph0.00 inOvercast
4:07 AM44.6 °F42.8 °F93 %29.83 in4.0 miENE (70°)6.9 mph0.01 inOvercast
4:56 AM44.1 °F43.0 °F96 %29.81 in5.0 miNE (40°)8.1 mph0.02 inRainLight Rain
5:36 AM44.6 °F42.8 °F93 %29.79 in7.0 miENE (60°)8.1 mph0.01 inOvercast
5:56 AM44.1 °F43.0 °F96 %29.79 in5.0 miNE (50°)6.9 mph0.01 inOvercast
6:56 AM44.1 °F43.0 °F96 %29.78 in10.0 miENE (70°)8.1 mphOvercast
7:51 AM44.6 °F44.6 °F100 %29.79 in2.5 miNE (50°)5.8 mphOvercast
7:56 AM44.1 °F44.1 °F100 %29.79 in2.5 miVariable3.5 mphOvercast
8:20 AM44.6 °F44.6 °F100 %29.78 in1.8 miEast (100°)4.6 mph0.00 inRainLight Rain
8:42 AM44.6 °F44.6 °F100 %29.77 in2.0 miNE (50°)3.5 mph0.00 inRainLight Rain
8:56 AM45.0 °F44.1 °F97 %29.80 in3.0 miCalm0.00 inOvercast
9:07 AM44.6 °F44.6 °F100 %29.79 in2.5 miNE (40°)3.5 mph0.01 inOvercast
9:22 AM44.6 °F44.6 °F100 %29.77 in3.0 miENE (60°)3.5 mph0.01 inOvercast
9:56 AM45.0 °F44.1 °F97 %29.75 in3.0 miENE (70°)4.6 mph0.01 inOvercast
10:27 AM44.6 °F44.6 °F100 %29.74 in2.5 miENE (60°)5.8 mph0.00 inRainLight Rain
10:42 AM44.6 °F44.6 °F100 %29.77 in3.0 miCalm0.00 inOvercast
10:49 AM44.6 °F44.6 °F100 %29.75 in2.5 miEast (100°)4.6 mph0.00 inOvercast
10:56 AM45.0 °F44.1 °F97 %29.78 in2.5 miCalm0.00 inOvercast
11:37 AM46.4 °F44.6 °F93 %29.80 in1.8 miWSW (250°)6.9 mph0.00 inRainLight Rain
11:48 AM46.4 °F44.6 °F93 %29.78 in2.0 miWSW (250°)4.6 mph0.01 inOvercast
11:56 AM45.0 °F45.0 °F100 %29.75 in3.0 miNW (310°)3.5 mph0.01 inOvercast
12:56 PM46.0 °F45.0 °F96 %29.74 in10.0 miWSW (250°)4.6 mphOvercast
1:06 PM46.4 °F44.6 °F93 %29.74 in8.0 miWest (270°)8.1 mphOvercast
1:56 PM46.9 °F46.0 °F97 %29.74 in10.0 miWSW (240°)9.2 mphOvercast
2:10 PM48.2 °F46.4 °F93 %29.74 in10.0 miWSW (240°)10.4 mphOvercast
2:35 PM48.2 °F46.4 °F93 %29.73 in10.0 miWSW (240°)11.5 mphOvercast
2:42 PM48.2 °F46.4 °F93 %29.73 in10.0 miWSW (240°)11.5 mphMostly Cloudy
2:51 PM50.0 °F46.4 °F87 %29.72 in10.0 miWSW (240°)11.5 mphScattered Clouds
2:56 PM50.0 °F46.9 °F89 %29.72 in10.0 miWSW (240°)13.8 mphScattered Clouds
3:56 PM52.0 °F46.0 °F80 %29.72 in10.0 miWSW (240°)9.2 mphClear
4:56 PM52.0 °F42.1 °F69 %29.73 in10.0 miWest (260°)17.3 mph23.0 mphClear
5:56 PM48.9 °F41.0 °F74 %29.77 in10.0 miWSW (250°)17.3 mph29.9 mphPartly Cloudy
6:56 PM48.0 °F39.9 °F74 %29.80 in10.0 miWSW (250°)15.0 mph23.0 mphClear
7:56 PM46.0 °F39.9 °F79 %29.82 in10.0 miWest (260°)10.4 mphClear
8:56 PM45.0 °F39.9 °F82 %29.84 in10.0 miWest (260°)9.2 mphClear
9:56 PM43.0 °F37.0 °F80 %29.86 in10.0 miWest (280°)8.1 mphClear
10:56 PM41.0 °F35.1 °F79 %29.88 in10.0 miWSW (250°)3.5 mphClear
11:56 PM39.0 °F35.1 °F86 %29.90 in10.0 miWSW (250°)4.6 mphClear
Hourly data recorded from KAND, located miles away from Hartwell, Georgia







STORIES FROM OUR PARTNERS